Theta_e
358 359 359 359 359 359 359 358 357 356 355 354 355 355 354 353 351 351 351 352 353 354 355 353 353 355 354 352 351 352 355 356 355 355 357 358 358 357 356 358 359 359 358 358 357 356 357 358 358 358 359 358 357 355 355 355 355 355 356 357 357 356 357 358 358 359 359 356 355 354 354 355 355 356 358 357 357 358 356 356 357 356 356 355 354
357 358 359 359 359 359 359 359 358 357 355 355 355 354 354 353 352 351 351 352 353 353 353 353 352 353 353 353 353 353 356 358 356 354 356 358 358 356 355 358 360 359 358 359 359 358 358 358 358 357 357 357 356 354 352 352 352 352 352 354 355 355 357 359 359 360 360 359 357 356 356 357 358 358 359 359 358 359 358 356 356 354 355 355 354
355 357 359 359 359 358 358 358 358 358 356 355 354 353 352 352 353 352 350 350 352 352 351 351 352 354 353 353 355 356 357 358 356 354 356 358 357 355 353 355 358 358 357 358 358 357 358 358 358 357 355 355 356 354 351 351 351 351 351 352 353 354 355 358 360 360 360 359 358 357 356 357 358 357 358 359 359 360 359 357 354 353 355 355 354
355 357 358 358 358 358 359 358 358 358 356 354 353 352 351 351 353 353 351 348 349 351 351 351 351 355 355 354 355 356 356 357 356 355 355 357 357 356 354 355 357 357 355 354 354 354 355 356 356 355 354 355 356 355 353 353 353 352 353 353 354 355 355 357 360 361 360 359 359 358 358 359 360 358 358 359 358 358 359 358 357 356 355 354 353
353 355 357 358 357 357 358 358 357 357 356 354 353 352 351 351 351 352 351 349 347 349 351 351 352 354 355 354 354 355 355 356 356 354 354 356 356 355 354 355 356 356 354 353 353 353 352 352 352 352 354 355 356 355 353 354 355 353 353 353 354 356 357 357 359 361 361 361 360 359 360 360 360 359 359 360 358 355 356 358 358 360 360 356 352
352 353 355 357 357 357 357 357 356 356 356 355 353 352 352 351 351 352 352 350 348 347 349 352 352 353 354 352 352 354 355 354 355 354 352 352 354 354 353 354 356 356 354 354 354 353 352 351 350 351 352 352 353 354 355 357 358 356 354 354 354 356 358 358 359 360 361 361 361 360 358 358 358 359 360 361 359 354 353 353 354 359 363 363 358
351 351 353 355 355 356 356 357 356 355 356 355 354 353 352 351 351 351 352 352 350 347 347 349 352 352 352 351 350 352 354 354 355 355 353 351 353 354 352 351 353 354 354 353 352 352 352 352 351 351 351 352 352 351 354 357 358 357 357 357 357 356 356 357 359 361 361 361 359 357 356 356 357 358 358 361 362 359 357 357 356 357 360 363 364
352 351 352 353 354 355 355 356 356 356 356 356 355 354 353 352 352 352 352 352 351 349 347 348 350 351 351 351 349 350 353 354 355 355 354 352 352 353 353 351 349 350 352 351 351 350 349 349 350 350 350 352 353 352 352 355 358 358 357 358 359 359 358 355 356 359 360 359 357 356 355 355 357 357 357 359 363 362 359 358 359 358 358 360 363
352 352 352 352 353 354 355 355 356 357 357 357 357 355 354 354 354 353 353 353 352 351 349 348 349 350 351 351 351 349 349 351 353 353 353 353 352 351 352 352 350 348 349 350 350 350 349 347 345 346 348 351 354 352 348 348 353 356 359 360 360 361 360 358 356 358 358 357 355 355 355 355 356 357 356 358 361 361 358 357 358 358 359 359 359
351 352 352 353 353 354 356 355 355 356 357 357 357 356 355 354 354 354 354 354 353 352 352 350 350 350 351 352 352 350 348 348 349 349 348 349 351 350 350 351 352 352 351 351 350 349 349 348 346 346 347 348 348 345 339 337 340 344 351 358 362 363 362 360 358 357 358 358 356 354 353 352 352 352 351 352 354 357 358 358 359 359 359 359 358
352 351 352 353 354 355 356 356 356 356 357 358 358 357 356 354 354 355 355 354 354 354 353 353 351 350 351 352 352 352 349 347 347 346 342 340 343 348 350 351 353 354 353 352 352 350 348 347 347 348 350 350 347 342 336 333 333 336 340 346 353 358 361 361 361 359 358 357 355 353 352 352 352 352 350 347 348 352 356 357 358 359 359 360 360
354 354 353 353 353 355 357 358 358 357 358 358 358 358 358 356 355 355 355 355 355 355 354 354 353 352 351 351 351 351 351 350 348 346 344 339 337 341 347 348 350 352 353 353 352 352 350 348 347 347 350 353 353 351 346 339 334 333 335 339 344 349 352 356 359 360 361 360 357 356 354 353 354 355 353 350 350 353 356 357 357 358 359 360 360
354 356 356 355 354 355 356 358 358 358 358 358 358 358 358 357 356 355 356 355 355 355 355 354 354 353 352 351 351 351 351 351 350 348 346 344 341 340 343 346 346 348 350 352 352 353 352 351 350 349 349 351 354 357 357 353 346 340 338 338 340 344 347 349 351 354 357 360 361 359 357 356 357 356 355 355 356 356 356 355 356 357 358 359 360
354 355 356 356 355 355 356 357 357 358 358 359 358 358 357 357 356 355 355 355 355 356 355 355 354 355 354 353 352 352 352 351 351 349 348 347 346 344 343 345 346 346 347 349 351 353 353 354 354 353 351 352 354 357 358 358 357 355 351 346 342 342 344 346 347 348 351 354 357 359 359 360 360 360 359 359 360 359 358 357 356 357 358 359 360
351 352 354 356 356 356 356 356 357 358 358 359 359 358 357 357 357 355 355 354 355 356 355 355 355 355 354 354 354 353 353 352 351 350 348 348 347 345 344 345 346 346 347 348 350 351 353 354 356 356 355 355 356 357 358 359 360 361 361 358 355 353 352 351 350 349 348 350 352 355 357 359 359 359 360 359 359 361 360 359 360 361 360 359 359
345 345 347 351 354 354 355 357 357 358 359 360 360 359 358 358 357 357 356 354 353 355 356 356 356 355 355 354 354 354 353 352 351 350 349 349 348 347 345 345 347 347 348 348 350 351 353 355 356 357 357 357 357 355 356 358 359 360 362 363 362 361 359 359 357 354 351 350 351 352 354 356 356 358 358 357 356 358 359 360 360 360 360 359 359
341 341 341 343 346 348 350 353 356 357 359 360 359 358 358 358 358 358 357 356 354 354 354 355 356 356 356 355 355 355 355 354 352 351 350 350 348 347 346 346 348 349 349 349 350 351 354 355 356 357 357 358 358 356 354 354 356 358 360 361 362 361 359 359 359 358 355 352 350 350 350 350 352 354 355 353 351 352 355 358 358 356 356 358 358
339 340 340 339 340 342 344 348 352 356 357 358 357 357 357 357 357 357 357 357 356 354 355 355 355 356 357 357 357 356 356 356 354 353 352 351 349 348 347 348 350 350 351 351 352 352 353 355 356 357 358 358 357 357 355 353 354 357 358 359 361 361 359 358 358 359 359 356 353 350 348 347 347 348 349 349 348 349 353 356 356 354 354 357 356
337 338 339 339 337 338 340 343 347 352 355 356 356 357 357 356 357 356 356 357 356 355 355 355 355 356 357 358 358 357 357 357 356 355 353 352 351 349 348 350 351 352 353 353 354 354 354 354 355 355 356 357 357 356 355 354 354 357 357 357 359 359 358 358 359 361 361 361 359 356 352 348 346 345 344 344 346 349 351 353 355 354 354 354 354
334 336 337 338 338 338 339 341 343 346 351 355 357 357 357 356 357 356 356 357 356 356 356 356 357 358 357 356 356 357 358 358 357 357 356 354 353 351 349 351 353 354 355 355 356 356 356 357 357 356 354 354 354 354 353 352 353 356 358 357 358 358 358 358 360 361 362 361 361 360 358 356 355 353 351 350 350 350 349 350 353 355 355 354 355
332 333 335 336 337 338 339 340 341 342 345 349 354 357 358 357 357 357 357 357 357 358 358 358 358 357 356 355 355 356 358 358 359 359 358 356 355 353 351 352 354 355 356 357 357 358 358 359 359 358 357 355 353 352 351 350 350 353 356 358 358 358 359 360 360 361 362 361 361 361 361 361 361 360 359 358 358 356 354 352 352 354 354 355 356
330 331 332 334 337 338 339 339 340 342 343 345 348 353 356 358 358 358 358 358 359 360 360 358 356 355 355 355 356 356 357 358 360 360 359 358 358 356 354 353 354 356 358 359 359 359 360 360 360 360 359 357 355 354 351 350 349 350 352 353 354 355 357 359 360 360 360 361 360 360 360 360 360 359 356 356 356 357 357 356 354 355 356 356 358
329 330 330 332 334 337 338 338 339 341 343 344 345 348 352 356 358 359 359 359 359 359 359 358 356 355 354 355 356 357 356 357 359 360 360 360 359 358 357 355 354 355 357 359 360 360 361 361 360 360 359 358 357 356 354 352 351 350 349 349 350 351 352 355 358 359 360 360 360 360 360 360 361 359 357 356 355 355 355 355 356 357 358 359 360
329 329 329 330 332 335 337 338 338 339 341 343 344 345 347 351 355 358 359 359 359 358 358 358 357 355 355 356 357 358 358 359 359 360 361 361 360 359 358 357 356 355 355 358 359 360 361 361 361 361 359 358 357 356 355 353 351 350 350 350 349 349 350 353 356 358 360 360 360 360 360 360 361 361 360 359 359 358 358 358 358 360 361 361 361
329 329 329 329 330 332 334 336 337 338 339 341 344 345 346 348 352 355 358 359 358 357 357 357 356 356 357 357 358 359 361 361 362 361 361 361 361 361 360 359 358 356 355 356 358 359 360 360 360 360 359 358 357 356 355 354 352 351 351 350 351 350 350 351 355 357 359 360 361 361 361 361 362 363 362 362 362 362 362 362 362 361 361 362 363
329 329 329 329 329 330 331 334 337 338 338 340 342 345 347 349 351 354 356 358 358 357 357 356 356 356 357 358 359 361 363 364 364 362 361 361 362 362 361 360 359 357 356 356 356 357 357 357 358 358 357 357 357 356 355 354 353 352 352 351 351 350 350 352 355 357 358 360 361 362 361 361 362 362 363 364 364 363 364 364 364 363 362 363 363
328 329 328 328 328 329 330 332 335 337 338 340 342 344 346 349 351 353 356 357 358 357 357 357 357 357 358 359 360 362 362 364 365 363 362 362 363 362 361 361 360 358 356 356 356 355 355 355 355 355 355 355 355 354 354 354 353 353 352 351 351 350 350 352 354 357 359 360 360 361 361 361 361 361 363 365 365 365 364 364 364 364 362 362 362
326 327 328 327 327 328 329 331 333 335 337 339 340 341 344 347 350 352 355 357 358 359 358 358 358 359 359 359 360 361 360 362 365 364 362 360 361 361 362 361 359 358 357 355 355 354 354 354 354 354 354 354 354 354 354 354 354 354 353 352 351 350 350 351 353 356 358 360 361 361 361 362 362 362 362 364 364 365 364 364 363 362 362 362 362
324 325 326 327 327 327 328 329 330 332 335 336 337 339 340 342 344 347 349 352 355 356 356 355 356 358 358 359 360 361 362 363 365 364 361 359 359 360 362 359 357 357 358 356 354 353 353 354 355 356 356 356 356 356 356 356 356 356 356 355 354 353 352 353 353 355 357 360 361 363 363 363 363 363 362 363 364 364 364 363 363 362 362 362 361
324 324 325 326 327 327 327 327 328 330 331 333 335 336 337 338 339 341 343 344 346 348 350 350 350 352 352 354 357 359 361 363 364 363 362 363 361 361 362 362 359 357 357 356 354 353 354 356 356 357 357 358 358 358 358 358 358 358 358 358 357 356 356 356 356 356 357 359 361 362 363 363 363 362 363 363 364 364 363 362 361 361 361 361 360
324 324 325 326 327 328 328 327 328 329 330 332 333 334 336 337 339 340 341 342 342 343 344 346 347 348 349 351 354 356 358 360 361 361 361 362 362 362 362 362 361 359 358 356 353 352 354 356 357 358 358 359 360 360 359 359 359 358 358 358 358 358 357 357 358 358 359 359 361 362 362 363 363 363 363 363 363 363 363 362 361 360 360 359 358
323 324 324 325 326 327 328 328 328 329 329 331 332 333 335 336 338 339 340 340 340 340 340 341 343 344 346 348 351 354 356 357 358 359 358 359 361 362 361 360 360 359 358 356 354 353 354 355 357 358 359 359 360 360 360 360 359 358 358 359 359 359 359 359 359 360 360 361 361 361 362 362 362 363 363 363 363 362 361 361 360 358 357 357 356
322 322 323 323 324 325 327 329 329 329 329 330 331 331 333 334 336 337 337 338 339 340 341 341 342 343 346 348 351 353 355 356 357 358 358 357 357 359 359 359 359 359 357 355 354 355 357 357 357 358 359 360 360 360 360 360 360 358 358 359 359 359 360 361 360 361 361 362 361 362 362 362 362 363 363 362 361 360 360 360 360 358 356 355 355
321 321 321 322 323 324 325 327 328 329 329 329 329 330 331 332 334 335 336 337 339 341 342 343 343 344 346 349 352 354 356 358 358 358 357 356 356 356 356 356 357 357 355 353 354 357 358 358 359 359 359 360 361 361 361 360 360 359 359 359 359 360 360 361 362 362 362 362 361 362 362 363 363 363 362 361 359 359 358 358 358 357 356 355 355
320 320 321 321 322 323 324 325 327 328 328 328 328 329 330 331 332 333 334 335 337 338 341 343 345 346 347 350 353 355 355 357 359 359 358 356 355 354 353 353 353 353 351 350 353 357 358 359 359 360 360 360 361 361 361 361 361 361 361 361 361 361 361 362 363 364 364 363 363 363 363 363 362 361 360 359 358 358 358 357 356 356 356 355 355
319 320 320 321 322 322 323 323 324 325 326 327 326 327 328 329 331 332 333 334 335 337 339 343 345 347 348 349 351 353 353 355 358 360 359 357 355 351 349 351 354 354 353 352 352 355 357 359 359 360 361 362 361 362 362 362 362 362 362 362 362 361 362 362 362 364 364 364 363 363 361 360 359 359 358 358 358 358 358 357 356 355 355 356 356
319 319 320 321 321 322 322 323 323 323 324 324 325 326 327 329 330 332 333 334 336 338 339 342 345 347 348 350 351 353 354 355 358 360 359 357 353 348 347 351 356 357 357 356 356 355 356 358 359 360 361 362 362 362 362 362 362 362 362 363 363 362 362 361 361 362 364 363 363 362 360 358 358 357 357 358 358 358 358 357 357 356 355 355 356
318 319 320 320 321 322 322 322 322 322 322 323 325 326 328 329 330 332 333 335 337 338 340 343 345 347 349 350 353 354 355 356 358 358 357 356 353 348 346 350 355 358 359 359 359 358 358 358 359 360 361 362 362 362 362 362 362 362 362 362 363 363 363 362 361 362 364 363 362 361 359 358 357 357 357 357 357 357 357 356 356 357 356 354 354
318 319 319 319 319 320 320 321 321 322 322 324 326 327 328 329 330 331 332 334 335 337 340 343 346 347 349 350 352 354 354 354 356 356 354 354 352 349 347 350 355 357 359 360 361 360 360 359 359 360 361 361 362 362 362 362 362 362 362 362 362 362 362 362 362 362 363 363 362 361 359 358 357 357 358 357 357 357 357 357 357 358 357 355 354
318 318 319 319 319 319 320 320 321 322 323 324 325 326 327 328 329 329 330 331 333 335 337 340 344 347 347 347 349 350 350 351 354 356 356 355 353 350 349 351 354 357 359 360 361 362 362 361 361 360 360 361 361 362 362 362 362 362 362 362 362 362 362 361 358 356 356 358 359 359 359 358 357 357 357 357 357 357 357 357 357 357 357 355 353
318 318 319 320 319 319 320 320 321 322 323 324 324 325 326 327 327 327 328 329 330 332 333 336 341 342 342 343 345 346 346 348 351 353 355 355 354 353 352 352 353 355 356 357 358 359 360 362 362 362 362 361 361 362 362 363 363 363 362 362 361 360 359 357 354 352 353 355 356 356 357 357 356 356 356 357 357 356 356 357 357 356 356 354 352
318 318 319 319 319 319 319 320 321 322 323 323 323 324 324 325 325 325 325 326 327 328 329 331 333 334 333 335 338 340 341 342 343 345 346 347 348 350 351 351 351 350 350 351 351 351 353 356 358 359 360 360 360 361 362 362 363 363 362 361 359 358 357 357 355 354 355 355 354 353 355 356 356 356 356 356 356 355 355 356 355 354 353 353 350
318 318 319 319 319 319 319 320 321 322 322 322 322 322 322 322 322 322 322 322 323 323 324 324 324 324 324 325 328 332 334 334 333 333 334 335 336 338 339 341 342 343 342 343 343 343 344 345 347 349 351 353 354 356 357 358 359 360 360 359 358 357 356 355 354 353 353 352 352 352 354 354 354 355 355 355 355 355 355 354 352 351 351 350 348
317 317 318 318 318 319 319 320 320 321 321 321 321 320 320 320 319 318 318 318 318 318 318 317 317 316 316 317 319 321 323 323 323 322 322 322 324 325 325 326 328 329 330 331 332 333 335 335 336 337 340 343 344 346 347 348 349 351 353 355 355 355 355 353 353 353 352 352 351 352 353 353 353 353 354 354 354 353 352 351 349 348 347 347 346
316 317 317 317 317 318 318 319 319 319 319 319 319 318 318 317 315 315 314 314 314 314 313 312 311 311 311 311 312 312 312 313 314 314 314 314 314 315 316 316 317 319 320 322 322 324 325 325 326 327 328 330 331 333 334 335 336 338 342 345 347 350 352 353 353 352 351 351 352 352 352 351 351 351 352 353 352 351 349 347 346 345 345 346 346
315 315 315 316 316 317 318 318 318 318 318 317 317 316 316 314 313 312 311 311 310 310 309 308 308 307 307 307 307 307 306 306 307 307 307 307 307 308 309 310 311 313 315 315 316 317 317 318 319 319 320 321 323 324 325 327 328 330 332 335 338 341 345 348 350 352 351 350 350 351 350 349 348 349 349 349 348 347 345 344 343 343 343 343 342
314 314 314 315 316 316 317 317 317 316 316 315 315 314 313 312 311 310 309 308 307 307 306 305 305 304 304 303 303 303 303 302 302 302 302 302 302 303 304 306 308 310 310 311 312 313 313 314 314 314 316 317 318 319 321 322 323 324 325 327 330 333 336 339 343 346 347 348 347 347 347 347 346 346 345 344 342 340 339 338 337 336 335 335 334
312 312 313 313 314 314 315 315 314 314 313 313 312 311 311 310 309 308 307 306 305 305 304 303 303 302 302 301 301 301 301 300 300 300 300 300 300 301 303 305 307 308 308 309 310 311 311 311 311 312 313 314 315 316 316 317 318 320 320 322 324 327 330 333 337 339 342 344 345 344 344 343 341 339 338 337 335 334 332 331 330 329 329 329 328
310 310 311 312 312 312 312 312 312 312 311 311 310 309 309 308 307 306 305 304 303 303 302 301 301 301 300 300 300 300 300 299 299 299 299 300 301 302 303 304 305 306 306 307 307 308 309 310 311 312 313 313 314 314 314 314 315 316 317 319 320 322 323 327 332 336 339 339 339 338 337 335 332 331 330 329 329 328 327 327 327 326 326 327 327
309 309 309 310 310 310 309 309 309 309 309 309 308 307 307 306 305 305 304 303 302 301 301 300 299 299 299 299 299 299 299 299 299 299 299 299 300 300 301 301 301 302 302 302 303 304 305 306 307 309 310 311 313 315 316 317 317 316 315 316 318 320 321 322 326 330 332 332 329 327 326 325 324 323 324 323 323 323 323 323 323 324 324 325 325
307 308 308 308 308 308 307 307 307 307 307 307 306 305 305 304 304 303 302 302 301 301 300 299 299 299 299 299 299 299 299 299 299 298 298 298 299 299 299 299 299 300 300 300 300 300 301 302 303 303 304 305 307 309 313 315 318 319 319 319 318 318 318 319 319 321 324 325 324 322 321 319 318 319 318 318 318 318 318 318 319 319 319 319 319
Wind_Speed
22 22 22 22 22 22 22 23 23 22 21 21 21 20 19 18 18 16 16 16 15 15 16 16 15 15 14 13 13 12 12 12 11 11 11 12 12 11 10 10 11 10 9 9 9 9 9 9 9 8 8 8 8 7 7 7 7 7 7 7 8 7 6 8 9 9 9 9 9 9 8 8 8 7 8 9 9 10 10 10 10 10 9 9 11
22 22 21 22 22 22 22 22 23 23 22 21 21 21 20 19 19 17 17 17 17 17 16 16 16 16 15 15 14 13 13 13 12 11 12 12 12 12 12 12 12 11 10 10 10 10 9 10 10 10 10 10 10 9 8 8 8 8 8 7 8 8 7 8 9 9 10 9 9 9 9 8 8 8 8 10 10 10 11 10 9 9 8 8 9
21 21 21 21 23 23 22 21 22 22 23 22 22 22 21 20 19 19 19 18 17 18 18 17 16 17 17 16 15 14 14 14 13 13 13 13 12 12 12 12 12 12 11 11 10 10 10 10 11 10 10 10 10 10 9 9 9 9 9 8 8 9 8 9 9 10 11 11 10 10 9 8 9 10 10 10 10 10 10 10 9 9 8 9 9
21 21 21 22 22 22 22 22 22 22 23 23 23 22 21 20 19 20 20 19 18 18 18 18 17 17 17 17 17 16 15 15 15 14 14 14 14 13 13 12 12 12 11 11 10 10 10 11 10 10 10 10 10 10 10 10 10 10 10 9 9 10 9 9 10 10 11 12 11 10 10 10 11 11 10 10 10 10 10 10 10 9 8 9 9
20 22 22 22 22 23 23 22 22 23 23 23 23 23 22 20 20 20 20 20 19 18 18 18 19 19 19 18 18 18 17 17 17 16 16 15 15 14 14 14 14 13 13 12 12 12 11 11 11 10 11 11 11 11 11 10 11 10 10 10 10 10 10 10 10 10 11 12 12 11 10 11 11 11 10 10 10 10 10 10 10 10 9 8 9
20 20 21 21 22 23 23 23 23 23 23 23 22 23 22 22 21 20 20 21 21 20 19 18 19 20 21 20 19 19 19 18 18 18 17 16 16 16 15 15 15 15 14 14 14 14 13 13 12 12 12 13 13 12 11 11 11 11 11 11 11 10 10 11 11 11 12 13 13 12 12 11 11 11 10 10 10 11 11 11 10 9 8 8 9
21 20 19 19 20 21 22 23 23 23 23 23 22 22 22 22 22 21 21 21 21 21 21 20 19 20 22 22 21 20 19 19 19 19 19 18 17 17 16 16 16 15 16 15 15 15 15 14 14 13 14 14 14 13 12 12 12 12 12 12 12 12 12 12 12 12 12 13 13 13 12 11 11 12 11 10 11 11 11 10 10 8 8 9 9
19 21 20 19 19 20 21 21 21 21 21 21 21 21 21 21 22 21 20 20 21 22 22 21 20 20 21 22 22 21 20 20 20 21 21 20 19 18 17 17 17 17 17 17 16 16 16 16 15 15 15 15 15 14 13 13 13 13 13 12 12 12 13 12 12 12 13 13 13 12 12 12 11 12 12 11 11 10 9 8 9 10 10 10 9
16 18 19 20 20 20 20 19 18 19 19 20 20 21 20 20 20 20 20 20 20 20 21 21 21 20 20 21 21 21 21 21 21 22 22 21 20 20 19 19 19 19 18 18 17 17 17 17 17 16 16 16 17 17 16 15 15 14 12 12 12 13 13 13 13 13 13 13 13 12 12 12 12 12 12 11 10 10 8 9 10 10 11 11 10
16 16 18 20 20 20 19 19 18 18 19 20 20 20 20 20 19 20 20 20 19 19 20 21 21 21 20 20 21 22 22 23 24 26 26 24 21 20 19 19 19 19 19 19 18 18 18 18 18 18 19 20 22 22 21 19 19 18 16 14 13 13 13 14 13 13 13 13 13 13 13 14 13 12 12 12 11 10 10 9 10 10 10 11 11
14 16 17 18 18 18 18 18 19 19 19 19 19 19 19 19 18 19 19 19 19 19 19 20 21 21 21 21 21 22 23 23 25 29 31 31 27 22 19 19 19 20 20 20 20 20 20 19 19 19 20 22 24 24 23 22 21 21 21 19 18 17 16 14 13 13 13 13 13 13 14 14 14 13 14 13 12 10 10 9 10 10 11 11 11
12 13 15 18 18 18 17 17 19 19 19 18 18 17 16 17 18 18 18 19 19 19 19 20 21 21 21 22 22 22 23 24 26 30 33 35 34 29 23 20 20 20 20 21 21 21 20 20 19 19 18 20 21 21 21 21 21 21 21 21 21 21 21 20 17 15 13 13 14 14 14 14 14 14 13 12 11 10 10 10 11 11 12 12 12
9 10 12 14 16 17 17 18 19 20 20 19 18 17 17 18 20 20 19 19 18 19 20 21 21 21 22 22 23 23 23 23 26 30 32 33 35 34 29 24 23 22 21 21 21 21 20 20 19 19 18 19 20 19 18 19 20 21 21 21 21 22 23 24 24 22 18 16 15 15 15 15 14 15 13 11 10 10 11 12 12 12 12 12 13
7 8 10 12 14 16 17 18 19 18 19 19 19 19 19 20 21 22 20 20 19 20 21 22 21 22 22 23 23 23 23 24 26 29 31 32 32 33 31 27 24 24 23 22 21 21 20 20 19 20 19 19 19 19 19 18 18 18 19 20 22 23 23 24 24 25 25 24 22 20 18 17 16 16 14 12 11 12 12 12 12 13 13 14 15
11 10 10 9 11 13 14 16 18 19 19 19 19 20 21 22 22 21 20 20 20 21 21 21 21 22 23 23 23 23 24 25 27 29 31 31 30 30 31 28 25 24 24 24 23 22 22 21 21 20 20 20 20 20 20 18 17 17 17 18 19 20 21 22 23 24 26 28 28 26 23 21 19 18 17 14 13 13 13 13 13 13 13 14 16
15 15 15 12 7 7 11 12 15 17 18 18 19 20 20 21 21 20 19 19 19 19 19 19 20 21 23 23 23 24 24 25 28 30 32 32 30 29 30 29 26 25 25 24 24 24 23 23 22 22 22 21 21 22 22 19 17 17 17 18 18 18 19 20 22 23 24 25 27 27 25 23 21 21 20 18 16 13 12 13 14 13 13 14 14
14 16 16 15 12 7 8 11 13 14 15 17 18 19 20 20 20 19 19 19 19 20 20 19 19 20 21 22 23 24 25 25 28 31 32 32 31 30 30 28 25 25 26 25 25 24 24 25 24 23 23 22 22 23 25 24 20 19 18 18 18 19 19 19 20 22 23 24 25 26 26 25 24 24 24 24 22 19 16 14 14 14 13 13 13
14 15 14 14 15 13 10 10 11 13 14 16 18 18 19 20 20 20 19 19 19 20 19 20 20 20 21 22 23 24 24 25 27 31 33 33 32 32 30 26 24 25 25 25 26 26 26 27 27 26 24 23 23 23 25 25 23 21 20 19 20 20 20 18 18 20 21 22 23 25 26 26 26 26 25 24 23 21 20 18 16 14 14 14 14
15 15 14 14 16 15 12 10 9 11 14 17 19 19 19 20 20 21 20 20 20 20 20 21 21 20 20 21 22 24 25 25 26 29 32 32 33 33 30 25 23 25 24 24 24 25 26 28 30 31 30 26 25 25 25 26 25 23 21 21 22 22 20 18 18 18 18 19 21 23 24 25 25 26 26 24 22 21 23 22 19 16 16 16 15
17 16 15 16 16 15 13 11 10 11 12 15 17 19 20 20 20 21 21 21 21 21 22 21 21 23 25 24 23 24 26 26 26 27 30 31 32 33 31 26 24 25 24 23 23 24 24 25 28 32 34 33 31 30 29 29 28 24 21 21 23 21 19 17 18 18 18 18 19 19 20 20 20 21 21 21 21 21 23 24 22 19 18 17 17
17 17 17 17 17 15 13 12 12 12 13 13 15 17 19 20 21 20 21 21 21 22 22 24 26 29 30 29 27 25 25 26 26 27 29 31 32 33 32 29 26 26 24 23 23 23 24 24 25 27 31 33 33 33 33 33 32 29 26 25 25 22 19 17 16 17 18 18 18 18 18 17 18 18 18 18 18 18 20 22 22 21 20 19 18
17 18 19 18 17 16 15 15 14 13 13 14 14 15 17 18 20 21 21 21 22 23 23 25 29 32 32 30 29 29 28 27 26 27 29 31 32 34 34 32 30 27 24 23 24 24 23 24 23 24 27 29 29 30 31 31 32 33 33 31 29 27 24 21 18 17 18 18 18 18 17 17 18 18 18 18 17 16 17 18 19 20 20 20 19
17 18 19 18 18 17 16 16 15 13 13 14 15 15 16 17 18 20 22 22 23 25 24 24 26 30 32 31 29 29 29 28 26 28 30 31 32 34 35 35 34 31 26 24 24 24 23 23 23 23 25 27 26 26 26 28 31 33 34 34 33 32 31 28 22 19 19 18 19 19 18 18 18 17 17 17 17 16 16 17 17 18 19 19 19
16 17 18 19 18 17 15 15 15 14 13 14 15 16 16 16 18 19 20 21 23 26 27 25 23 25 27 27 25 26 27 26 25 27 30 32 34 36 37 38 37 35 32 28 25 24 24 24 23 22 24 25 25 25 26 27 30 32 32 32 32 32 34 32 26 21 20 19 19 20 20 19 19 19 17 17 16 15 16 16 17 17 18 19 20
15 16 18 18 18 18 17 15 15 15 14 14 15 15 15 15 17 19 18 19 23 28 30 28 25 24 24 23 23 23 23 22 22 25 30 33 35 37 39 39 39 38 36 32 28 26 25 24 21 21 23 24 25 25 27 29 30 31 31 30 30 33 35 33 26 22 22 21 20 21 22 21 21 20 18 17 16 16 15 15 16 18 19 19 19
16 16 16 17 18 18 18 16 14 14 15 15 15 15 14 14 16 17 17 19 21 25 27 27 25 24 24 23 23 23 21 20 20 23 26 30 33 36 38 38 38 39 39 37 34 30 28 26 24 23 23 25 26 27 29 30 30 31 31 31 32 33 33 29 25 23 23 22 21 22 22 21 20 19 18 17 17 17 16 16 16 18 19 18 18
17 17 17 17 18 17 17 16 15 15 15 14 14 15 14 14 15 16 16 18 19 20 21 22 22 22 22 23 23 22 20 20 20 20 22 25 28 33 36 37 37 37 39 40 40 37 33 31 30 30 29 29 30 30 30 30 30 30 31 33 35 35 31 27 24 23 23 23 23 22 21 20 19 19 18 18 18 17 17 17 17 17 16 16 18
17 18 19 19 18 16 16 16 16 15 14 14 14 15 15 15 15 15 16 17 17 18 18 19 21 21 22 23 22 21 21 22 21 21 23 24 24 25 28 34 37 38 40 40 40 39 37 33 30 31 31 30 29 28 27 27 26 26 25 26 29 32 32 28 26 25 24 23 23 22 21 20 19 19 19 19 18 18 17 17 16 16 15 15 17
17 18 18 19 18 16 16 15 15 15 15 15 15 15 16 17 17 18 18 19 19 19 19 19 19 20 21 21 20 19 20 21 20 20 24 26 24 21 19 22 27 31 34 35 33 31 29 27 26 25 25 25 25 25 24 24 24 24 23 22 23 24 25 26 26 26 25 24 23 22 21 20 20 20 20 20 19 18 18 17 16 16 16 17 19
17 17 16 17 17 17 16 16 16 15 16 16 16 17 18 19 20 23 25 25 25 26 27 28 27 26 27 28 26 23 22 20 18 18 21 23 24 24 21 17 18 20 23 25 26 24 21 22 24 24 24 26 26 25 24 23 23 22 22 23 23 23 23 24 25 25 25 24 24 23 21 21 21 21 21 20 19 18 18 18 17 18 19 20 21
17 17 15 15 16 16 16 17 16 15 15 16 17 19 20 21 21 23 25 26 27 26 28 30 31 29 30 32 34 33 31 26 23 22 22 21 21 24 24 21 20 21 20 21 24 25 22 21 22 23 23 26 27 27 27 26 25 23 22 22 23 24 24 25 24 24 23 24 23 23 22 22 22 21 21 21 20 18 17 17 16 18 21 23 24
17 17 16 16 16 16 16 16 15 15 15 16 16 17 20 22 22 22 22 23 26 27 26 27 28 28 29 30 32 35 37 35 33 33 33 29 23 22 22 21 22 25 25 23 24 25 23 21 21 22 23 25 27 27 28 28 28 27 25 24 24 24 25 26 25 24 23 23 22 22 22 22 22 21 20 20 19 17 16 16 15 15 18 21 23
18 19 18 17 18 17 16 15 15 15 15 16 17 17 18 19 21 23 23 24 25 25 25 24 23 23 24 25 27 29 31 32 32 36 39 38 31 25 21 21 22 25 26 25 23 22 22 21 21 22 23 26 27 28 28 29 29 29 29 27 26 25 24 25 25 25 25 24 23 23 22 21 21 20 19 18 17 16 17 19 20 19 19 20 21
20 21 21 20 19 19 18 16 15 15 15 16 17 17 17 18 20 22 24 24 23 22 22 21 20 19 19 21 21 21 22 22 22 26 33 38 39 35 28 24 25 26 27 27 25 23 23 24 23 23 23 24 26 27 28 28 29 29 29 28 27 26 25 24 25 25 25 25 24 23 22 21 20 20 18 17 18 19 20 21 22 22 23 23 22
22 21 22 21 21 20 20 18 17 16 15 15 16 17 17 18 19 21 22 22 22 22 22 20 18 18 19 20 20 20 20 19 19 20 22 27 34 37 32 27 25 25 26 28 27 25 24 25 25 25 24 24 24 25 27 28 29 28 27 26 25 26 26 25 25 25 25 25 24 23 22 21 20 19 18 18 19 21 22 21 21 21 23 24 23
24 22 21 21 20 20 20 19 18 18 17 16 17 18 18 18 19 21 22 22 22 23 23 21 19 18 19 20 20 20 20 19 18 19 19 21 25 29 29 26 24 24 25 28 29 27 26 26 26 25 24 23 23 23 25 27 27 26 26 25 24 25 27 27 27 27 26 26 25 23 21 20 20 20 20 21 22 23 22 21 21 21 23 23 22
24 23 21 21 20 20 20 20 20 20 20 19 19 19 18 18 19 19 21 22 21 21 23 23 21 19 18 18 17 18 18 17 17 19 20 20 21 24 26 26 25 24 24 25 26 25 25 26 27 26 25 24 24 24 25 26 26 25 25 24 25 27 28 29 29 28 27 26 26 23 21 20 21 23 24 24 24 23 23 22 22 22 23 21 19
25 24 23 21 19 19 20 20 20 21 20 19 19 19 18 19 18 18 19 21 21 21 22 23 22 19 17 16 15 16 16 16 15 17 19 20 20 22 25 25 24 25 26 26 26 26 25 26 26 26 25 25 25 26 27 28 28 28 27 26 26 27 27 28 29 28 26 26 26 22 19 19 22 24 25 25 25 24 24 23 23 22 22 21 21
24 24 24 23 22 21 21 20 20 20 19 18 19 19 19 19 18 17 18 19 19 19 20 21 21 20 17 15 13 13 13 12 12 13 14 16 19 22 23 22 22 24 26 26 27 27 26 25 24 24 25 26 27 28 29 29 29 29 29 28 28 28 28 28 28 25 22 23 22 19 18 21 24 26 25 25 25 24 23 23 23 22 21 21 22
21 22 22 21 20 20 20 19 19 19 19 19 19 19 19 19 19 18 17 18 18 18 18 19 21 20 16 13 12 11 11 11 13 15 14 13 16 19 20 20 20 21 23 24 25 26 27 26 24 24 24 26 27 28 28 28 29 28 28 28 27 26 26 24 21 18 19 20 19 17 17 22 26 26 26 26 25 24 22 22 23 24 22 18 17
19 21 20 19 19 19 19 19 19 20 20 20 19 18 18 19 19 18 17 17 17 17 17 18 20 19 16 14 14 14 14 14 15 15 15 13 13 14 15 16 16 16 17 18 18 19 20 21 21 22 22 24 26 28 27 27 27 27 27 26 23 24 26 25 22 23 26 26 24 23 23 25 27 27 27 27 26 25 24 23 22 23 21 17 15
19 21 20 19 19 19 18 18 18 19 19 20 20 19 18 17 16 16 15 15 16 16 16 17 18 18 16 15 14 15 16 15 13 12 13 14 14 13 13 14 15 15 16 17 17 17 17 16 16 16 17 18 19 21 23 24 24 25 27 27 26 26 29 29 28 29 31 30 29 30 31 31 30 29 29 28 28 28 28 24 18 17 17 16 17
21 22 22 20 19 19 18 18 18 18 19 20 19 17 16 15 14 13 13 14 14 14 13 13 14 15 15 15 13 12 12 12 10 9 9 11 11 11 11 12 14 15 16 18 20 21 21 21 20 20 19 19 19 19 20 20 21 22 25 29 31 33 34 33 30 29 29 29 29 30 30 30 30 31 31 29 27 27 25 21 16 15 15 16 17
21 21 21 20 20 19 18 18 19 19 19 19 17 15 13 12 10 10 10 11 11 11 10 9 9 10 10 10 9 7 6 5 4 4 4 6 7 7 8 8 9 11 13 14 16 17 18 20 21 22 23 24 24 24 24 24 24 23 24 26 29 33 37 36 33 32 32 31 30 29 29 29 30 32 33 31 29 26 23 19 16 15 14 15 17
19 19 19 19 19 18 18 18 19 19 17 16 14 13 11 9 8 8 8 8 8 8 7 6 6 6 7 7 7 5 3 1 1 1 1 3 4 5 5 6 6 7 8 9 10 11 12 13 15 16 17 19 20 21 22 22 23 23 24 25 27 30 32 31 30 31 32 31 30 30 30 30 30 31 33 33 33 30 24 20 18 18 17 18 19
18 17 17 18 18 18 17 16 16 15 14 13 12 11 9 8 7 6 5 5 5 5 5 4 3 4 4 5 5 5 4 3 3 3 3 3 3 3 4 4 4 5 5 6 7 7 8 9 10 11 12 13 14 15 16 17 18 20 21 24 26 28 29 28 28 27 28 28 29 31 32 31 31 31 31 30 29 25 20 18 18 18 17 17 17
18 16 16 17 17 17 16 14 13 12 12 12 11 9 8 7 6 5 4 3 3 3 2 2 1 1 2 2 3 4 4 4 5 5 5 4 4 3 3 2 2 2 2 3 3 3 4 5 6 7 8 9 11 12 13 14 15 16 18 20 23 26 27 27 26 23 24 27 31 34 33 31 30 29 27 25 24 23 22 20 18 17 16 15 16
15 14 14 15 15 15 14 13 11 11 10 10 9 7 6 6 5 4 3 2 1 1 1 1 1 1 2 2 3 3 4 4 5 6 5 4 4 4 4 4 3 3 3 3 3 3 4 4 5 5 5 6 6 7 8 10 11 12 13 14 17 19 22 25 25 24 23 27 31 34 34 31 29 27 26 27 26 26 25 22 19 17 16 13 13
13 12 12 13 13 13 12 11 10 9 9 8 7 6 5 5 4 3 2 1 1 1 1 2 2 3 3 4 4 5 5 5 6 6 6 8 10 12 13 13 14 14 14 13 13 12 10 9 9 8 7 6 6 6 7 8 8 8 8 8 8 8 10 14 20 23 24 23 22 23 22 21 21 21 21 23 25 25 24 22 20 19 16 14 13
12 11 11 11 11 10 9 9 8 8 7 7 6 5 5 4 4 3 2 2 2 2 3 4 4 5 6 7 7 8 8 8 9 10 11 13 14 14 14 14 15 16 17 17 17 17 16 16 17 17 16 15 13 12 11 11 12 13 13 11 8 5 4 3 7 15 20 20 19 18 18 19 22 22 22 24 26 26 24 22 20 18 16 15 13
10 9 9 9 9 8 7 7 7 6 6 5 5 5 5 5 4 4 3 3 3 4 4 5 6 8 8 9 9 10 10 9 9 9 10 10 9 8 8 9 10 11 12 12 13 14 15 15 17 18 19 20 20 20 19 18 17 16 16 16 15 14 15 16 15 15 19 24 27 27 25 24 24 23 24 26 28 27 25 22 19 18 17 15 14
Wind_Direction
200 200 201 203 203 202 203 205 207 210 211 213 215 218 218 219 221 220 219 219 218 218 219 221 221 222 223 223 224 224 221 222 223 224 227 228 231 232 231 231 233 237 242 244 244 243 240 242 242 242 242 245 250 253 252 250 251 254 254 254 258 258 255 262 273 284 291 296 298 298 305 309 306 303 304 304 306 313 316 313 314 318 319 326 322
203 201 201 203 203 204 205 204 206 208 210 212 214 217 219 220 220 219 219 219 218 220 221 221 221 221 223 223 222 222 220 220 223 225 228 230 231 233 233 232 234 237 240 241 242 242 242 244 244 243 242 242 247 253 254 253 251 252 250 248 254 256 252 257 268 280 286 291 296 295 298 301 299 302 305 304 307 311 312 311 312 312 312 322 323
205 202 202 203 204 204 204 205 205 206 208 212 215 218 219 220 219 218 220 220 219 221 223 223 222 221 222 223 221 221 219 221 225 226 227 229 232 235 235 233 234 236 238 239 239 241 242 244 245 245 244 242 244 249 253 252 251 253 252 250 254 255 252 252 257 269 281 288 291 291 294 296 296 300 301 299 302 305 306 305 305 306 306 313 317
203 201 204 206 206 205 205 205 207 207 209 213 215 218 219 219 218 218 220 221 220 221 222 223 223 221 222 223 221 221 220 221 225 227 227 229 232 236 236 235 235 236 238 239 239 240 241 244 247 247 248 246 245 247 249 247 245 247 249 248 249 251 251 249 249 257 271 280 282 283 288 291 290 294 296 296 296 296 297 297 295 295 298 306 310
206 204 205 208 207 206 206 206 209 209 212 215 216 218 219 219 218 217 219 221 220 220 220 220 221 221 223 224 223 223 223 222 224 227 228 229 230 234 235 236 235 236 239 240 240 240 241 244 247 247 248 248 247 247 248 244 242 243 245 244 244 247 247 246 246 249 257 268 275 277 279 282 284 287 288 289 293 296 294 292 289 286 288 297 306
214 213 211 211 209 208 207 208 210 211 213 216 217 218 219 219 219 218 218 219 219 220 219 219 219 221 225 227 226 225 225 224 224 227 229 229 230 232 233 234 236 237 239 240 240 241 242 244 245 245 246 247 249 250 248 244 242 243 244 243 243 243 244 243 243 244 249 258 268 273 275 276 278 281 279 276 282 291 295 294 290 285 284 291 302
214 216 217 218 216 214 211 209 211 212 213 215 218 219 220 220 220 219 218 218 218 219 219 219 219 221 226 229 229 227 227 226 226 227 229 229 228 231 232 233 235 237 240 242 242 242 243 244 244 242 242 244 246 248 247 245 245 244 243 242 242 240 242 242 240 241 247 254 261 267 272 273 273 276 276 269 270 277 282 286 289 290 290 291 294
215 215 217 221 221 219 218 216 214 213 213 214 216 218 220 220 220 220 218 218 219 220 221 221 221 222 225 229 229 228 227 227 227 228 231 230 228 230 232 234 237 239 241 243 244 245 245 246 246 244 241 241 242 242 243 242 244 246 244 240 239 239 242 244 243 243 246 253 259 264 270 271 271 274 275 267 264 268 269 276 286 291 294 293 290
222 220 219 221 222 221 219 218 218 215 213 213 215 217 219 220 219 219 219 220 221 223 224 224 224 224 225 226 228 227 227 228 228 228 230 229 229 231 232 234 237 240 242 244 244 245 246 248 249 247 243 239 238 241 244 241 240 243 244 241 240 239 241 244 245 245 247 252 257 261 265 266 265 268 270 265 264 269 273 275 281 287 292 292 292
230 229 226 224 223 221 217 215 215 213 212 212 213 215 217 219 220 219 220 222 223 224 224 225 226 226 226 225 226 227 229 230 230 231 233 231 229 231 234 235 237 239 241 243 245 246 247 249 251 249 245 242 243 248 253 251 247 245 243 240 239 240 242 244 244 244 246 250 255 258 261 263 264 267 271 272 272 273 275 279 282 289 295 293 291
243 235 234 232 229 225 218 214 213 213 211 212 214 215 217 220 223 222 222 224 225 224 224 226 227 228 228 228 228 229 232 232 232 235 239 240 237 233 234 236 237 238 240 242 244 247 248 248 250 249 244 243 247 253 258 256 252 250 247 244 240 239 241 244 245 245 246 249 253 256 260 263 265 267 271 276 277 274 276 282 285 288 291 290 291
262 252 246 240 236 233 226 217 212 212 213 214 214 215 215 219 224 226 227 227 227 228 228 229 229 230 231 232 232 233 235 234 234 237 241 245 244 240 237 239 240 240 241 242 243 245 247 247 248 247 242 239 241 247 254 257 254 251 249 249 246 243 241 242 244 245 247 252 254 255 257 262 264 263 266 274 279 279 278 278 279 281 281 283 286
283 280 270 253 241 235 229 224 218 214 214 215 215 214 213 217 222 227 230 232 231 231 232 233 232 232 233 234 235 237 238 237 236 239 242 246 247 245 240 240 243 243 243 243 243 243 243 244 245 245 243 240 236 235 240 249 255 255 253 252 250 247 244 243 242 242 245 252 256 255 255 257 261 261 263 269 274 274 274 273 274 275 277 279 281
317 296 282 264 249 239 233 232 230 224 218 214 213 215 215 218 223 228 231 231 230 231 233 235 234 233 234 235 236 238 240 239 238 241 244 246 248 248 244 240 242 244 245 244 244 243 242 240 240 241 241 239 234 230 230 234 242 250 253 253 252 250 248 246 245 242 241 243 247 251 252 251 253 257 260 261 260 262 267 271 274 276 278 280 281
352 341 319 292 262 247 242 239 236 232 225 217 212 215 218 221 224 228 230 231 231 232 235 237 237 235 235 235 237 240 241 240 239 240 245 247 248 248 245 241 240 243 244 243 244 244 242 239 239 239 240 237 233 231 230 228 230 234 239 244 247 246 245 244 244 243 241 240 242 245 248 249 252 256 258 258 256 258 261 267 272 275 277 279 279
358 352 346 342 323 253 243 250 248 238 228 220 217 218 221 223 225 227 231 235 236 237 237 239 240 240 239 237 238 241 242 242 241 242 244 247 247 246 244 242 240 241 243 242 242 242 241 239 238 238 239 238 235 233 232 230 230 232 234 236 239 241 240 240 240 241 241 240 241 244 246 247 248 249 250 251 252 257 264 268 268 267 268 273 276
359 353 348 347 345 311 274 282 281 259 236 227 229 231 231 230 230 229 231 233 237 239 240 241 243 244 244 242 240 242 244 242 241 243 246 245 243 242 241 238 237 239 241 241 241 241 240 238 237 237 238 237 236 236 237 237 234 235 237 238 239 242 242 241 244 246 246 245 244 245 247 248 247 246 247 250 252 255 260 261 260 260 261 266 270
354 349 344 339 338 331 314 302 294 276 255 243 243 245 243 242 240 238 237 236 236 238 239 242 244 245 246 246 244 243 246 246 243 244 246 245 242 239 237 234 233 236 239 239 239 240 241 240 237 236 236 237 236 236 239 240 237 235 238 239 240 242 242 240 243 247 250 250 250 250 251 252 252 251 251 251 251 250 248 247 250 256 257 258 265
346 341 335 329 328 330 324 306 289 279 268 257 252 249 247 248 247 243 243 243 240 237 236 238 242 243 245 249 249 247 248 250 248 246 246 246 243 238 233 230 232 235 237 238 238 238 240 241 240 239 238 236 235 236 240 241 238 234 236 239 240 242 242 239 238 239 240 241 245 249 252 253 254 255 256 255 250 243 240 241 243 249 253 256 262
341 335 329 323 321 322 321 312 297 286 278 269 262 256 248 246 246 244 242 242 241 239 236 233 235 237 236 239 245 249 250 250 249 248 247 247 245 239 232 228 232 235 236 237 237 238 238 239 240 242 243 241 238 238 240 243 241 236 235 238 240 242 242 240 239 239 238 239 242 246 249 251 252 253 255 255 251 244 241 239 238 239 246 253 256
338 334 330 325 320 318 317 316 309 301 292 282 276 271 258 247 244 244 242 239 238 237 235 232 234 238 237 234 234 238 246 250 250 249 247 247 246 241 232 228 231 235 236 236 237 238 239 238 238 241 244 245 244 242 242 245 246 242 238 238 240 241 243 244 243 242 242 245 247 247 246 245 244 244 244 244 242 240 240 240 237 235 238 245 249
334 333 330 327 323 320 317 316 314 309 303 294 284 280 273 258 247 243 241 239 237 236 236 236 239 243 243 240 236 234 237 242 247 250 249 247 246 243 236 231 231 233 236 238 238 239 239 239 238 240 243 246 247 246 245 247 248 248 246 244 244 243 242 245 248 248 247 246 247 247 246 244 242 242 241 238 236 234 232 235 235 234 235 239 243
329 329 328 327 325 320 316 314 311 307 304 299 289 281 278 272 260 247 240 238 240 240 240 242 245 247 246 245 245 242 238 236 241 247 249 247 246 245 243 240 235 233 235 239 240 241 241 242 242 241 243 246 247 247 248 249 249 250 250 250 249 248 247 247 249 250 249 247 247 247 245 243 242 240 239 238 238 237 236 239 241 237 237 239 241
324 325 324 324 324 321 316 312 310 307 302 297 291 282 276 274 270 260 246 239 239 242 242 242 245 247 245 244 245 246 245 242 240 243 247 248 247 247 247 246 241 236 235 240 243 244 246 248 248 245 244 247 248 249 252 253 253 253 254 253 252 251 249 247 246 245 245 244 243 243 242 240 239 239 238 238 238 240 241 243 245 242 241 242 243
318 319 320 320 319 319 318 311 306 305 301 295 288 282 276 271 267 262 252 242 239 240 241 241 242 244 245 244 245 246 247 246 242 242 245 247 248 248 248 248 246 241 237 238 242 245 247 249 249 248 248 249 251 252 253 255 256 257 257 256 254 251 247 244 242 241 241 240 237 238 239 237 235 236 239 240 240 241 240 239 240 243 245 245 244
312 312 314 315 314 315 316 313 308 304 300 296 287 278 272 266 262 259 254 248 244 243 242 242 242 242 243 244 246 246 245 244 243 244 246 248 248 248 248 248 248 245 243 242 243 243 244 247 248 250 251 252 253 253 253 256 259 260 259 256 252 248 244 241 238 236 238 239 238 238 238 238 238 238 237 235 235 236 235 233 236 243 244 243 243
306 306 308 310 310 311 311 312 312 305 300 297 292 283 274 264 258 256 253 250 249 246 244 243 243 244 245 246 246 245 245 246 245 243 244 246 246 246 245 245 245 243 242 243 244 243 243 245 248 250 252 254 255 255 256 256 257 258 257 253 249 246 241 237 236 235 236 238 240 241 242 242 242 239 233 229 231 232 231 229 232 239 242 241 243
295 300 303 304 305 306 307 308 309 305 301 299 294 290 285 276 268 262 256 254 253 249 247 245 244 245 247 247 247 245 244 244 242 239 240 242 241 241 240 239 240 240 240 240 242 243 243 244 246 249 250 250 252 251 250 248 246 246 246 246 246 246 242 238 236 236 236 237 240 243 244 242 240 238 235 235 235 234 229 226 230 237 239 237 239
285 289 294 297 298 300 303 305 305 305 305 301 294 288 283 280 278 275 268 262 259 259 263 265 261 261 262 259 256 252 247 243 240 240 243 243 240 238 236 232 233 238 243 243 239 238 238 236 238 241 243 244 245 244 241 239 238 237 236 234 236 238 236 232 232 233 233 234 237 239 240 238 237 237 238 239 238 232 225 222 227 234 233 232 234
281 281 283 287 290 295 299 302 305 304 302 301 298 294 288 282 279 277 275 272 267 263 265 268 270 274 278 276 271 266 260 255 253 254 256 251 242 238 239 239 238 242 249 248 238 230 229 231 232 234 237 240 242 241 239 237 236 234 233 230 230 231 230 228 229 230 229 229 231 234 236 236 237 238 238 238 236 231 227 224 225 229 231 231 234
273 276 276 277 285 292 294 296 299 299 297 297 298 298 296 292 286 281 280 281 278 271 265 264 265 267 272 274 272 270 266 263 259 261 266 265 252 243 244 248 251 252 253 248 234 226 227 232 233 232 234 236 239 241 241 240 238 236 235 232 230 230 230 229 230 228 227 227 229 231 233 234 235 235 236 238 238 236 233 227 222 225 230 233 235
263 269 272 274 280 286 288 289 291 292 293 293 294 295 297 297 295 290 286 284 283 279 274 272 270 268 266 267 269 270 268 266 262 262 266 269 265 258 255 256 257 255 251 245 235 228 229 232 234 235 237 238 239 240 241 242 241 240 239 238 235 232 230 230 229 227 226 226 227 229 231 232 234 234 234 234 234 234 232 225 216 216 224 228 233
258 264 268 270 274 279 282 284 284 285 287 288 290 291 293 293 295 295 295 292 289 285 283 283 282 278 272 267 267 269 271 272 268 264 263 262 260 260 262 262 260 255 245 235 231 233 236 236 236 237 239 240 240 241 241 241 243 242 241 240 239 238 234 232 229 226 226 228 230 232 232 230 230 231 229 228 229 231 232 229 223 220 222 225 230
254 259 263 266 269 273 277 280 280 279 280 283 284 285 286 287 290 293 295 296 295 292 290 289 289 287 281 275 273 273 277 281 279 270 263 257 254 255 260 260 256 250 239 230 229 235 240 242 242 241 240 240 240 240 240 240 242 242 240 239 240 240 239 235 229 226 226 229 231 233 232 229 228 227 226 227 231 231 229 228 226 225 228 230 230
253 257 260 261 263 266 269 273 276 278 278 278 279 281 282 284 286 287 288 289 291 292 292 291 289 288 285 280 279 280 282 285 288 285 274 260 252 251 251 250 246 241 233 229 230 235 240 243 245 244 242 241 239 239 240 241 241 239 237 236 236 236 236 233 228 225 228 233 232 228 225 225 227 228 227 229 230 228 225 225 225 226 228 227 224
250 253 257 257 258 262 265 267 270 273 275 277 278 279 279 279 280 282 282 282 283 286 288 289 288 286 284 281 282 287 288 288 290 288 281 271 259 249 241 236 236 235 232 229 229 231 235 239 241 242 241 241 239 238 238 239 238 237 235 235 236 236 235 233 230 227 228 234 234 228 222 224 229 232 232 231 229 228 227 227 226 226 227 224 217
249 250 253 253 255 260 264 266 267 269 273 276 276 276 276 276 276 279 281 282 282 283 286 289 289 290 290 288 290 293 291 288 288 283 276 271 261 245 235 233 234 235 235 235 232 230 231 234 236 238 240 241 241 240 239 238 238 237 236 236 239 241 242 240 237 231 228 231 233 227 220 224 231 233 233 232 231 230 231 232 230 228 227 224 214
250 249 250 253 257 261 264 266 268 269 270 272 273 274 276 276 277 279 281 282 284 285 286 287 286 287 292 296 296 290 282 276 277 278 275 271 259 241 232 233 234 233 234 237 237 235 234 234 234 236 239 241 243 244 244 243 243 243 243 242 242 243 245 244 239 232 227 228 231 229 224 226 231 232 230 231 233 234 234 234 232 226 219 215 210
248 249 250 251 254 258 262 265 267 268 267 269 272 275 277 278 280 282 282 283 284 286 287 287 285 285 289 294 294 291 283 274 269 268 268 265 256 242 232 230 232 233 234 237 238 239 239 238 238 241 243 243 244 245 245 246 247 247 248 249 248 247 246 245 242 238 233 230 230 231 230 230 232 232 232 233 235 236 234 231 228 222 213 206 207
246 250 249 246 246 251 257 260 263 264 266 267 271 274 277 279 281 282 283 284 285 286 287 289 288 287 286 285 283 282 280 274 268 264 258 250 245 240 234 231 235 237 238 240 242 243 243 242 241 242 244 244 245 245 245 246 248 248 249 251 253 254 254 252 252 254 253 247 243 241 239 237 235 235 237 237 236 235 232 227 222 218 211 201 199
245 250 250 247 246 250 255 257 259 261 263 265 267 270 274 277 280 282 283 284 286 287 288 289 291 291 289 284 277 271 266 262 262 262 259 252 246 241 235 235 241 245 247 250 253 254 253 250 245 243 245 246 247 248 247 246 246 248 251 251 250 253 255 253 248 244 240 235 230 229 231 233 236 238 241 241 238 232 230 227 220 213 208 200 193
245 250 251 249 248 249 251 254 256 257 259 263 265 266 269 273 277 281 283 284 286 289 289 291 295 298 297 292 281 268 258 253 251 251 252 252 252 247 237 233 237 243 249 255 259 263 265 263 258 255 254 254 254 254 252 249 248 251 251 247 243 245 248 247 244 241 238 234 231 228 222 221 224 229 234 239 238 231 228 225 216 206 203 199 194
244 249 252 252 252 251 251 253 255 257 259 261 262 263 266 270 274 279 282 285 289 292 293 293 296 299 299 295 284 265 248 241 241 243 248 252 255 254 245 238 239 244 250 254 257 261 264 265 264 263 261 260 261 261 258 257 257 257 253 249 246 247 248 247 246 245 243 242 243 238 227 219 216 217 220 225 226 222 219 215 206 201 201 199 194
245 249 252 254 254 253 251 252 254 256 257 259 260 262 264 267 271 277 282 286 290 292 294 298 303 304 305 304 296 279 255 240 237 247 260 264 266 266 265 262 259 258 259 261 263 264 264 265 266 265 262 261 262 261 260 260 259 257 256 256 254 252 249 247 247 246 242 238 238 234 227 222 219 215 211 209 208 207 208 205 199 197 196 193 191
248 250 253 255 255 253 250 249 250 252 254 256 258 259 259 261 266 273 280 284 288 291 295 304 314 316 317 320 321 318 313 316 45 48 319 295 289 284 284 286 282 276 274 275 275 275 273 271 271 271 269 268 268 266 265 264 263 259 256 257 258 258 256 254 252 249 243 237 232 229 225 222 220 216 208 203 201 202 202 197 190 185 185 186 184
252 252 254 257 257 254 249 245 245 247 249 251 254 254 254 255 259 264 271 279 283 286 294 308 323 332 334 335 335 337 349 19 49 53 37 5 343 325 310 303 295 289 288 289 290 292 291 287 285 286 285 284 283 281 278 276 273 269 263 258 256 257 260 262 260 254 242 231 226 226 223 219 219 218 211 202 198 194 186 181 179 176 177 178 172
253 253 255 257 257 254 248 244 244 245 246 247 249 250 249 250 249 249 256 270 277 279 287 305 325 353 5 356 347 347 358 21 46 53 51 41 26 9 359 355 342 318 307 304 305 308 312 313 316 315 309 304 301 298 295 290 284 279 276 270 263 257 256 257 257 252 242 232 230 230 226 220 218 216 207 193 181 171 164 164 167 164 163 160 152
255 255 255 255 254 253 250 246 244 243 243 243 242 241 240 241 240 240 242 248 262 282 302 346 35 56 58 47 31 20 20 34 49 54 48 37 30 27 31 40 47 52 50 37 26 21 15 11 8 360 347 339 334 329 327 322 311 302 297 288 278 270 264 258 252 245 239 235 231 229 225 217 208 198 184 171 161 153 148 146 143 139 137 132 127
257 256 255 252 251 251 251 248 244 240 238 236 231 229 227 224 222 223 219 203 164 88 67 60 56 58 59 54 46 40 36 40 50 60 66 70 71 70 71 74 74 73 70 67 62 59 55 51 48 45 40 35 33 31 30 26 18 10 358 337 315 303 288 265 246 233 227 222 215 209 202 189 171 157 148 140 133 125 120 118 117 114 114 111 110
259 256 253 251 250 249 249 248 245 239 233 227 220 212 204 198 193 191 181 162 139 110 90 79 73 70 70 68 66 66 66 67 73 79 82 82 80 77 75 75 76 76 76 74 73 72 71 72 71 70 68 66 64 62 60 59 59 57 54 48 44 57 81 136 198 201 193 177 155 138 129 123 119 116 111 108 107 106 105 106 106 105 105 105 104
260 257 252 249 247 244 242 241 237 229 220 213 206 196 185 175 169 165 161 151 138 123 107 97 90 85 82 81 79 78 76 75 77 81 81 77 71 66 63 64 67 71 72 71 71 72 73 74 76 75 72 71 71 72 73 73 72 71 71 69 69 78 91 97 102 120 137 136 126 117 109 101 98 99 100 100 100 99 96 93 93 93 93 92 90